Location: D�derode
(51.8092°N, 10.1065°E)
Time: 06:20:46
(UTC+00:00)

Cosmos 2369 Rocket - Pass Details

Date: 01 December 2020
Orbit: 829 x 852 km, 71.0° (Epoch: 23 January)

Event Time Altitude Azimuth Distance (km) Brightness Sun altitude
Rises 17:49:27 0° 325° (NW) 3,425 5.7 -23.3°
Reaches altitude 10° 17:52:03 10° 317° (NW) 2,483 5.1 -23.7°
Maximum altitude 17:57:14 37° 252° (WSW) 1,286 3.6 -24.4°
Drops below altitude 10° 18:02:22 10° 187° (S) 2,453 4.7 -25.2°
Sets 18:04:56 0° 179° (S) 3,380 5.4 -25.6°
